Theta_e
301 301 301 304 310 311 311 311 311 311 312 313 311 311 314 312 304 304 314 317 316 317 320 322 323 324 323 323 324 327 329 330 329 327 326 326 326 326 326 326 326 327 327 327 329 331 329 323 322 321 321 321 321 320 319 320 321 320 320 319 319 319 319 318 317 317 317 316 316 316 314 313 312 313 315 314 313 314 314 316 317 311 311 311 309 308 307
302 304 311 313 313 313 312 313 313 314 315 314 315 315 317 317 315 318 318 317 316 320 321 323 324 326 325 325 327 329 329 329 329 328 327 326 326 325 325 325 325 327 327 327 329 331 324 322 321 320 319 318 318 318 318 318 319 319 319 319 318 318 318 319 320 318 317 317 314 314 313 312 312 312 313 315 314 313 312 313 314 313 310 312 310 309 306
298 305 312 313 313 313 311 314 316 317 317 318 319 319 319 320 318 319 317 316 314 319 323 323 326 327 328 327 327 329 330 329 329 327 327 326 326 326 326 326 325 326 327 329 331 326 321 320 319 318 318 317 317 317 318 318 319 319 319 318 317 317 317 318 319 318 317 315 314 314 313 313 313 313 313 315 314 313 313 314 314 315 312 311 310 308 306
295 307 311 311 312 311 309 309 310 314 315 314 316 316 319 316 314 316 315 312 311 318 323 325 327 328 327 327 328 329 329 330 329 328 327 327 326 326 326 327 326 327 328 329 327 321 320 320 318 316 315 315 317 317 317 318 318 318 317 317 317 317 318 317 318 318 318 316 314 314 314 313 313 314 313 313 313 312 311 312 317 315 312 311 310 309 308
295 301 311 310 309 308 305 306 310 314 313 314 315 316 321 320 319 314 310 310 317 320 324 322 324 327 327 328 329 329 330 330 329 328 327 328 328 327 327 327 327 327 328 327 324 321 319 318 316 316 316 315 314 314 315 316 318 315 314 316 316 316 317 318 316 317 317 316 315 314 315 316 316 315 313 312 311 311 311 315 314 313 311 311 310 309 307
296 302 305 306 302 296 299 308 315 318 314 315 314 314 317 320 321 315 317 317 321 322 322 321 322 324 326 328 330 332 330 328 326 326 326 327 328 328 328 328 328 328 328 324 321 319 319 319 318 319 319 316 315 317 319 317 314 312 313 315 316 317 317 317 317 316 316 316 316 316 317 316 315 313 313 313 313 313 314 312 311 312 312 311 310 309 308
298 304 305 302 295 297 307 315 321 322 322 322 320 320 321 321 321 321 320 321 321 323 323 323 323 325 328 329 329 329 329 328 326 325 325 325 327 328 327 327 328 325 321 320 319 319 319 320 319 318 317 317 316 314 315 315 314 313 314 315 314 314 315 316 316 316 316 316 315 315 315 315 315 314 314 313 312 314 314 311 310 310 310 310 312 314 311
300 300 298 293 296 306 319 319 322 326 324 323 321 317 320 322 321 321 319 320 322 323 323 323 325 325 327 327 327 327 328 328 327 326 325 326 326 326 326 326 322 318 318 317 318 318 322 318 317 315 315 315 313 313 316 314 313 312 313 315 314 314 315 315 315 315 315 315 315 315 315 314 314 314 313 313 313 315 316 312 312 312 312 312 312 310 310
297 299 298 299 308 310 313 314 317 316 313 315 314 309 313 323 322 322 320 321 323 323 323 323 324 325 325 322 322 328 328 328 329 328 327 326 326 327 327 325 320 319 319 319 320 320 317 316 315 314 315 315 315 315 314 313 313 313 314 313 313 317 317 315 316 315 315 315 316 314 314 313 313 313 313 312 312 318 313 311 310 310 310 310 314 311 311
303 300 297 299 296 296 303 312 317 320 319 321 320 316 311 320 325 325 323 321 322 322 322 322 323 324 320 316 317 324 328 330 328 329 328 328 328 327 323 321 320 319 319 319 320 316 315 314 314 315 317 316 315 314 313 312 311 311 312 313 315 315 314 317 316 315 316 316 316 317 314 312 313 313 313 312 311 318 312 312 309 309 310 311 309 313 315
301 298 295 294 295 300 305 313 319 323 324 324 320 312 307 316 324 325 325 323 322 322 321 321 321 317 312 313 317 323 327 328 329 327 327 327 324 321 320 319 318 318 318 319 319 317 314 314 315 317 314 313 314 315 315 312 312 311 311 312 312 312 313 315 315 315 316 315 314 314 313 312 313 312 312 312 317 314 312 312 312 310 319 309 310 310 311
301 297 293 295 301 304 314 318 319 321 323 316 307 297 297 314 324 325 325 323 322 321 322 321 318 315 311 313 319 326 328 328 328 327 324 320 320 320 320 319 318 319 322 319 315 315 315 315 316 316 315 315 317 314 314 311 312 312 313 313 312 312 313 314 315 315 318 319 318 316 312 312 313 313 315 316 311 313 312 312 312 311 311 312 309 310 313
304 306 301 304 308 317 320 320 324 324 321 313 301 294 301 319 324 326 326 325 324 323 322 321 315 317 318 321 326 328 329 328 328 326 323 322 321 319 319 320 325 317 316 315 314 314 313 315 317 317 316 316 315 316 312 310 312 313 313 313 314 314 313 314 314 314 313 314 316 316 313 312 314 318 316 313 312 311 311 311 310 310 310 312 312 310 310
300 301 299 301 305 316 320 322 328 326 315 303 298 308 320 325 324 326 327 325 325 324 323 321 321 323 326 328 328 327 327 327 326 324 322 321 320 320 322 324 320 315 315 314 314 314 314 317 317 316 316 318 316 314 311 311 312 313 314 315 314 313 313 313 315 314 314 314 317 317 316 316 310 310 312 313 313 310 312 310 309 309 310 314 311 310 310
306 304 302 301 296 314 325 325 322 322 310 306 315 323 325 326 325 324 324 325 324 325 323 325 325 325 325 325 325 326 326 326 324 322 320 318 318 318 318 317 319 316 313 312 314 316 318 317 317 316 316 317 317 316 311 313 314 314 314 314 313 312 313 313 316 315 314 316 317 318 316 316 312 310 312 312 313 317 311 310 309 308 308 309 308 307 308
302 303 304 303 311 317 324 321 313 318 319 321 323 324 320 323 324 323 323 324 325 326 325 324 324 325 324 324 325 325 326 325 322 320 320 319 319 319 318 318 317 317 313 314 315 316 316 317 317 317 317 318 317 313 311 313 315 320 316 313 313 313 318 315 313 315 316 320 317 315 317 317 316 311 313 311 312 314 314 313 310 308 308 311 309 309 308
312 310 312 319 321 322 323 323 321 322 323 323 323 323 323 322 322 324 324 323 325 326 325 324 324 323 324 324 325 322 317 317 318 319 320 319 317 316 315 315 318 316 315 315 315 315 316 318 317 317 317 319 320 315 312 319 319 317 315 314 314 314 314 312 315 313 314 314 313 313 311 316 313 315 313 312 311 310 313 311 310 308 307 310 310 310 311
320 320 321 321 319 320 320 322 323 322 322 323 325 324 322 322 323 325 324 325 325 325 325 323 321 319 319 318 315 314 314 315 315 316 314 313 314 314 314 315 316 316 315 314 314 315 315 316 317 320 315 316 318 318 317 323 315 314 316 315 315 315 311 311 313 313 310 310 312 312 313 314 315 313 311 314 313 310 311 311 309 312 309 311 312 310 310
311 303 318 317 318 319 320 320 321 323 324 323 324 323 322 322 324 325 326 325 325 325 325 320 315 314 315 314 314 313 311 311 311 312 312 312 312 313 313 315 319 313 314 314 316 317 316 316 316 317 314 314 316 318 319 316 317 314 318 318 321 319 313 312 312 311 310 309 311 312 310 311 312 315 317 313 312 317 314 309 309 309 312 314 312 311 310
309 310 317 319 320 320 321 319 318 318 318 320 322 323 324 325 326 326 326 326 325 325 320 317 315 315 315 312 310 310 310 311 311 311 311 311 311 312 314 317 315 314 314 315 317 316 316 315 316 317 316 316 316 318 316 315 315 317 320 320 316 312 313 313 315 312 312 321 320 313 311 311 310 309 311 315 312 312 312 310 308 308 312 312 312 312 308
312 315 316 317 318 317 318 319 319 318 318 317 319 321 323 325 325 325 326 327 325 323 318 317 316 314 312 312 311 311 311 311 311 311 312 312 313 313 313 314 315 313 315 316 317 316 317 316 317 317 316 315 314 313 313 314 314 316 319 318 317 312 313 311 312 318 318 318 316 312 310 311 312 311 310 311 312 313 314 311 310 311 310 309 312 310 308
308 308 311 316 311 308 314 317 318 317 318 317 316 316 319 323 324 325 324 325 325 322 319 318 316 313 312 312 312 311 312 312 311 311 312 312 313 313 315 316 314 316 318 316 317 317 315 315 316 316 314 315 317 316 314 313 314 315 319 319 315 312 315 312 310 316 318 315 315 316 312 310 311 313 326 322 314 312 311 325 325 318 313 313 312 310 308
309 315 317 319 316 314 315 316 317 317 316 314 313 312 314 318 323 325 324 323 323 321 319 319 315 313 312 312 312 312 312 312 312 312 312 311 312 312 314 314 314 315 316 319 317 317 315 316 316 317 315 316 315 316 315 315 314 314 314 316 316 314 318 316 320 320 317 312 312 312 313 311 312 313 314 314 307 308 314 324 316 308 303 305 308 313 314
318 320 319 318 316 313 315 317 317 316 316 314 313 313 314 315 319 321 322 323 322 320 317 316 316 314 313 313 313 312 312 313 312 312 312 312 312 313 315 315 315 316 318 318 317 318 315 316 316 316 317 315 314 315 315 315 315 312 313 315 312 313 314 316 320 324 313 314 317 315 315 312 311 313 311 310 312 308 306 308 308 304 301 301 300 302 305
317 319 318 317 317 316 317 318 318 317 318 316 313 313 313 313 313 314 314 316 319 316 314 314 315 315 314 313 313 312 312 313 314 314 317 319 314 312 312 315 316 317 317 316 316 316 316 315 313 316 315 316 314 314 315 315 314 313 313 314 312 311 313 320 320 324 318 315 316 317 315 315 315 313 311 311 309 310 313 307 306 302 301 300 299 299 299
319 318 318 317 317 316 316 316 315 315 316 318 318 319 320 321 315 313 312 313 314 315 315 314 314 315 315 313 313 313 313 313 318 321 315 314 315 314 311 314 316 317 316 316 315 316 316 316 316 315 316 317 316 315 316 316 315 315 315 314 314 314 314 316 316 313 314 314 313 313 313 312 313 313 315 316 312 312 312 313 314 309 304 301 298 297 297
319 319 317 315 314 314 314 313 310 314 316 317 317 317 318 318 322 316 315 314 315 315 315 315 314 314 315 315 316 314 313 315 319 317 314 314 315 313 312 314 316 318 318 316 315 318 321 320 318 317 316 317 316 318 316 317 316 315 315 314 314 325 325 325 314 313 312 313 314 314 314 316 314 315 316 317 317 316 313 313 313 312 312 314 309 300 305
319 319 318 313 311 311 312 314 315 315 315 314 313 313 314 315 315 314 314 314 313 314 314 315 314 313 313 314 315 316 318 318 316 313 314 314 315 314 313 314 317 318 318 318 317 322 323 319 318 317 317 318 317 317 317 316 316 315 314 314 315 314 315 319 320 318 316 315 315 313 313 313 315 316 317 317 317 316 314 315 315 312 313 309 310 314 305
317 317 318 317 316 315 315 314 315 315 314 315 315 315 316 315 314 314 313 313 313 313 313 314 316 316 315 314 316 316 315 314 314 313 314 313 315 313 313 316 317 318 317 318 316 318 316 315 316 316 317 318 319 318 318 316 315 315 315 316 315 315 315 315 315 315 316 316 315 316 321 319 318 316 316 317 318 315 316 312 313 313 311 310 310 312 314
316 317 316 315 315 315 314 313 313 313 314 314 313 314 315 315 314 313 314 314 314 313 313 313 313 313 314 314 314 314 314 313 314 315 315 315 314 315 316 317 316 315 315 315 315 316 315 316 316 315 315 317 319 319 319 317 317 317 316 316 316 315 315 316 316 318 317 316 317 325 322 319 318 315 316 316 316 315 315 314 314 314 311 310 320 311 310
315 316 315 315 315 314 313 312 312 313 313 313 313 314 314 315 314 314 314 315 315 315 315 315 315 315 315 315 314 314 315 314 314 315 315 315 315 316 317 316 315 315 315 315 316 316 316 316 316 316 317 319 319 318 319 318 317 317 316 316 316 322 324 325 324 318 315 318 319 317 317 318 317 317 317 315 315 314 312 311 312 311 313 312 312 312 311
315 315 315 314 314 313 312 311 311 312 312 313 313 313 314 314 313 313 315 315 315 316 314 314 314 314 314 314 315 315 314 314 315 315 315 315 315 316 316 316 317 322 316 316 316 317 316 315 315 316 317 318 318 317 317 316 317 317 315 321 319 317 321 327 324 324 322 323 320 318 320 317 315 315 314 314 313 314 313 311 311 310 310 310 311 312 312
313 311 311 312 314 313 311 310 311 311 312 312 313 314 315 316 316 316 316 317 317 316 314 313 313 313 314 315 315 314 314 314 314 314 314 314 315 316 316 317 318 318 316 317 317 318 318 316 317 318 318 320 319 318 317 317 316 316 316 315 315 316 327 325 325 320 322 322 320 318 317 317 316 315 314 316 315 316 313 312 312 311 312 312 310 311 312
313 312 312 314 314 312 310 310 311 312 313 313 313 315 316 316 317 317 318 318 316 316 315 316 315 315 314 315 315 314 313 312 312 312 313 314 314 314 315 321 317 316 316 317 317 317 317 317 317 317 318 319 320 320 319 317 316 316 316 315 315 315 319 321 322 321 318 321 319 321 321 319 317 315 316 316 314 314 314 315 316 315 312 311 311 313 311
316 315 316 316 316 315 314 313 313 314 313 312 313 315 316 317 317 317 320 318 316 316 317 316 315 315 315 314 315 314 313 312 313 313 313 314 313 313 315 317 316 316 316 317 317 316 318 319 319 319 319 319 318 316 316 316 316 315 315 316 320 317 317 319 318 319 318 318 319 315 314 313 313 321 320 318 315 315 314 317 316 315 313 312 311 314 314
317 317 317 317 317 316 314 313 316 315 313 314 315 316 316 316 317 320 321 318 319 318 317 316 316 315 313 313 313 314 313 313 314 313 313 314 314 313 314 315 315 315 315 315 318 318 318 317 331 333 322 317 316 315 315 316 315 315 316 317 317 319 322 322 320 319 321 318 317 317 315 318 321 320 320 317 315 315 314 311 311 311 312 312 312 311 313
318 317 316 316 316 314 313 314 315 313 315 315 316 316 317 318 319 320 320 320 320 318 317 317 316 314 313 313 314 313 313 315 315 315 313 315 315 314 314 314 315 314 315 313 315 319 320 320 332 331 327 318 319 317 320 332 324 319 320 319 315 317 318 316 317 317 316 317 318 317 317 317 313 312 316 314 312 311 312 312 313 313 311 311 313 312 313
319 320 319 318 316 314 314 315 316 315 316 317 319 320 320 319 320 320 320 321 320 319 318 318 317 316 315 315 314 314 314 316 316 316 314 316 316 315 314 315 314 316 316 314 316 318 318 324 334 328 317 315 315 316 321 332 333 319 313 313 315 317 318 317 316 318 318 314 320 314 313 312 311 308 310 309 308 310 312 312 313 312 311 310 310 311 313
319 320 320 320 321 320 319 317 316 318 318 316 316 317 321 322 321 320 320 320 320 320 318 317 316 316 316 315 314 313 314 316 316 315 315 317 318 316 315 316 316 317 316 316 320 318 321 329 327 319 316 315 316 317 322 334 334 316 313 315 316 316 316 316 316 317 317 315 315 312 312 312 311 310 310 310 309 312 314 314 314 314 314 310 309 308 310
317 318 319 319 318 319 319 318 317 317 317 318 317 317 320 322 320 320 319 319 320 323 318 317 317 317 316 315 314 314 315 317 317 317 317 318 319 316 316 317 319 320 322 335 323 318 331 336 329 318 318 318 318 316 322 328 333 322 314 314 315 316 315 317 315 315 314 314 316 323 313 312 311 313 312 311 309 311 310 310 309 309 309 309 307 307 310
321 320 319 319 319 318 318 319 318 318 318 317 317 318 320 320 320 319 319 319 320 320 318 317 317 318 318 316 316 316 318 320 319 319 319 318 316 315 316 315 318 321 326 327 320 322 332 335 323 316 315 319 318 325 319 328 323 312 313 312 312 312 312 312 313 313 313 313 314 309 308 310 311 310 311 310 310 309 309 309 309 309 307 307 306 307 308
321 322 321 320 320 319 319 320 321 320 318 317 319 319 318 319 320 320 320 320 321 320 318 318 323 319 319 318 317 319 318 318 318 319 319 318 316 315 315 315 318 320 329 334 334 330 326 327 326 328 316 317 320 331 335 325 316 310 311 311 313 316 314 314 315 314 313 312 310 308 311 310 309 309 310 309 308 309 308 308 307 307 305 306 307 306 306
322 322 321 319 318 318 319 319 320 320 320 320 320 319 320 322 321 321 321 320 321 320 321 319 323 328 326 320 318 317 317 318 319 319 319 319 319 319 318 317 320 322 336 334 329 323 320 317 316 315 325 327 322 329 330 318 311 311 311 314 320 318 315 315 314 313 313 310 309 308 308 309 309 307 309 308 307 307 308 307 307 306 308 304 303 305 307
323 322 321 320 319 319 318 320 320 320 319 319 320 320 322 322 322 321 321 321 321 322 320 320 321 322 321 319 319 317 318 319 317 318 318 318 319 322 320 322 321 327 337 328 324 319 317 316 314 320 331 333 334 333 324 316 314 313 314 315 314 313 314 314 314 313 310 311 311 309 308 312 310 308 308 308 307 306 308 308 306 305 305 305 305 305 306
322 322 322 321 320 319 318 319 319 319 321 321 322 321 321 321 321 321 322 322 322 322 322 321 321 321 320 321 320 319 319 320 319 319 315 316 316 318 322 332 325 327 331 333 319 318 314 313 320 331 334 334 334 333 321 315 313 314 313 313 313 312 312 313 313 313 312 312 311 310 311 310 309 309 309 309 312 310 309 309 308 307 307 307 306 306 307
322 322 323 327 319 318 319 320 322 323 323 322 324 325 324 323 322 322 323 323 322 324 322 322 321 322 321 321 321 321 322 322 323 322 320 320 319 319 322 332 326 330 333 335 322 317 313 326 332 337 334 334 333 328 319 318 319 314 313 312 311 314 314 314 314 314 313 313 311 311 310 310 310 310 309 309 308 309 310 312 312 310 307 307 307 306 306
322 321 321 319 319 321 321 321 323 323 321 320 320 319 322 322 323 323 322 323 323 323 323 324 324 324 324 323 322 320 319 320 322 323 322 322 325 330 330 337 336 336 334 329 323 319 316 320 332 335 336 336 333 323 317 314 313 312 311 311 312 312 314 315 315 314 313 312 312 314 316 313 310 310 312 315 313 313 311 310 309 309 308 309 309 311 310
321 320 320 320 321 322 321 320 320 319 319 319 320 321 322 322 323 323 324 324 324 324 325 325 325 325 325 325 324 324 323 322 319 320 323 324 326 325 326 326 328 338 336 338 335 334 330 331 335 335 335 336 331 321 318 315 314 313 311 312 312 311 311 312 313 312 311 311 312 311 310 310 311 311 310 310 310 310 310 309 309 309 309 308 307 306 306
321 320 321 323 322 322 319 318 319 321 319 321 324 322 323 322 322 322 323 323 323 323 323 324 324 324 326 328 327 326 327 325 322 320 322 323 323 321 322 330 338 339 334 326 325 323 331 330 329 331 332 337 327 321 318 317 317 316 315 313 312 312 313 314 313 312 311 311 311 311 310 310 310 311 311 311 311 311 311 311 310 310 309 308 308 308 308
321 322 322 321 321 320 319 319 319 317 320 321 319 322 324 322 319 319 322 322 323 325 323 322 322 323 325 325 327 328 328 328 326 326 327 326 324 321 322 322 323 334 335 324 322 321 330 332 330 330 328 323 321 321 319 318 317 317 316 317 317 315 316 315 317 316 313 312 311 311 311 311 310 312 312 311 310 310 311 311 310 313 317 314 309 308 307
321 321 321 321 321 322 321 319 319 319 320 321 320 322 325 322 321 322 322 323 321 323 322 323 322 324 324 325 327 328 327 327 328 332 326 324 324 328 329 324 324 328 328 326 322 320 317 316 317 321 323 324 319 318 318 319 318 317 320 317 316 315 314 314 313 312 313 313 312 311 311 311 311 311 311 312 312 311 311 311 311 311 309 308 307 307 306
322 322 322 321 320 322 321 321 322 323 322 323 323 324 323 322 322 322 322 334 324 321 322 321 321 322 323 324 326 326 326 327 327 327 332 327 324 323 326 334 324 324 326 324 322 319 316 316 322 327 329 320 318 318 323 328 322 318 317 318 319 317 317 316 315 312 311 313 314 312 312 312 311 311 311 311 311 311 311 311 310 310 309 308 307 308 307
Wind_Speed
4 4 3 4 9 6 7 9 6 5 7 15 13 8 12 7 6 8 5 6 6 11 12 12 11 12 12 12 11 10 11 10 11 11 12 11 11 10 10 9 8 9 8 6 8 6 8 10 9 7 6 5 5 6 6 5 5 5 4 5 4 4 3 4 4 4 4 3 3 3 3 4 4 4 3 2 2 2 3 2 3 4 5 3 3 2 3
1 8 19 13 10 10 12 10 8 6 11 11 12 7 6 8 9 12 14 8 5 3 10 9 8 8 9 9 7 8 10 11 12 12 11 12 10 10 9 9 8 8 9 7 6 7 10 10 9 7 6 6 5 6 5 5 4 4 6 4 4 3 3 4 4 4 4 3 3 2 2 3 3 3 3 1 1 1 2 3 1 1 4 4 3 2 4
3 8 13 16 11 16 13 9 9 9 10 11 12 13 11 13 10 11 14 12 5 1 4 8 6 8 7 9 11 11 10 11 12 12 11 11 9 7 7 7 8 7 8 8 7 10 10 9 8 7 6 5 5 5 4 4 4 3 5 4 3 3 3 3 4 4 4 3 3 3 2 2 3 4 2 1 0 1 1 1 1 1 3 4 3 3 3
3 9 18 12 16 14 10 5 4 9 12 12 6 9 8 8 8 8 10 9 4 2 5 9 10 11 13 13 11 9 9 11 11 12 11 10 9 8 8 8 8 8 8 8 9 10 9 8 8 7 6 5 6 6 5 5 4 4 4 4 4 3 2 3 3 3 3 3 3 3 2 2 2 2 3 1 0 1 2 2 1 1 3 3 3 2 2
2 5 16 16 10 10 8 3 0 3 3 4 4 4 3 4 17 11 8 8 4 9 9 12 9 11 11 11 11 10 10 10 11 10 10 9 8 8 8 9 10 9 9 8 9 9 7 8 7 6 7 7 7 6 6 4 4 5 5 5 4 3 2 2 2 2 3 3 3 2 3 3 2 2 2 1 1 2 3 2 3 2 0 3 2 2 2
1 3 4 3 7 6 1 4 1 1 5 7 8 4 7 5 3 3 3 6 10 10 9 13 13 12 12 12 10 12 13 10 8 8 8 7 8 9 9 9 9 9 8 8 9 8 8 7 7 6 7 7 6 5 5 4 5 5 6 5 5 4 2 1 2 2 3 4 3 2 1 2 2 2 2 1 1 2 2 3 3 1 0 1 1 2 2
3 0 5 10 4 1 3 2 4 7 10 12 13 9 8 8 11 14 14 12 10 8 7 10 11 10 9 7 10 6 7 10 10 11 9 9 9 10 10 9 9 9 10 10 8 8 7 7 6 7 6 5 4 4 5 5 4 6 5 5 4 3 3 1 2 3 3 3 3 3 3 3 3 2 1 2 3 3 2 1 1 2 2 1 1 3 2
2 4 4 6 2 2 2 4 6 9 11 12 15 10 7 4 7 12 11 8 9 9 10 9 8 11 9 8 6 6 7 8 11 11 10 9 10 11 9 10 9 10 10 10 9 8 6 7 7 7 6 4 5 4 4 6 4 4 4 4 3 3 2 1 2 3 3 3 2 2 2 2 2 1 1 1 2 2 2 3 1 0 1 1 1 1 3
4 2 4 7 3 5 4 3 3 3 4 4 7 5 1 1 3 11 12 11 11 11 11 11 11 11 11 9 6 4 6 7 6 9 9 10 9 9 8 10 10 9 9 9 8 7 7 6 6 5 4 3 5 6 5 4 5 4 4 4 3 2 2 1 2 3 3 3 2 2 2 2 0 0 0 2 3 1 2 2 2 1 1 2 2 1 2
5 8 6 4 3 2 4 6 5 3 3 7 6 8 1 2 2 9 15 13 12 12 11 11 12 12 12 7 3 1 4 9 11 9 10 9 8 9 10 11 10 8 7 7 7 8 7 6 5 4 4 5 7 6 5 4 4 3 3 2 2 3 3 2 2 1 2 2 1 0 1 2 1 1 1 2 2 1 0 0 1 2 2 0 1 2 1
4 6 6 2 3 1 5 2 1 6 9 10 6 7 0 3 5 6 13 13 12 13 13 11 9 8 6 5 5 4 6 9 11 12 10 10 10 11 12 13 11 9 8 8 6 7 7 6 4 4 6 7 7 6 4 4 4 4 3 2 3 3 2 1 1 1 2 3 3 2 1 2 2 1 2 2 1 0 0 1 2 2 0 1 2 1 1
2 6 4 3 1 2 2 2 1 3 5 4 5 2 5 6 8 7 11 13 12 9 10 9 5 7 7 8 8 8 9 10 11 13 13 13 12 12 11 10 9 9 7 7 6 6 5 5 4 6 5 8 7 5 4 4 4 4 4 3 3 3 2 2 2 2 2 2 1 2 3 3 3 3 2 1 1 0 0 0 2 3 3 1 0 1 1
5 8 3 2 1 1 2 3 2 2 2 3 2 3 2 6 10 8 10 12 10 10 8 5 5 2 4 9 11 10 10 11 10 10 12 13 12 12 11 10 10 8 7 7 6 5 4 5 6 6 6 6 5 4 4 4 4 4 4 2 2 3 2 1 1 1 1 1 1 1 3 3 3 3 2 2 2 1 1 2 2 3 3 2 1 2 2
4 3 6 2 1 2 2 4 0 1 3 1 6 3 3 11 9 8 10 11 8 8 6 4 4 5 12 15 12 12 12 13 13 13 13 12 11 11 11 12 9 7 6 5 4 3 4 6 6 6 6 6 4 4 4 4 4 4 3 3 3 3 3 2 1 0 0 0 1 2 2 0 0 0 1 3 3 3 1 1 2 2 2 2 0 2 3
1 3 5 3 1 3 2 4 2 3 1 3 3 6 6 8 9 9 6 9 8 10 8 10 12 13 13 14 13 12 12 13 14 13 13 12 13 12 11 10 8 8 6 5 5 5 5 6 5 5 7 6 4 3 4 3 3 2 4 4 4 4 3 3 2 1 2 1 1 1 3 2 1 2 1 1 1 1 1 1 1 3 3 3 2 3 3
4 3 3 3 5 2 2 3 2 1 2 5 5 8 7 4 7 8 8 7 10 13 14 13 12 13 14 11 12 13 12 11 12 13 13 12 12 10 10 9 8 7 7 6 6 5 5 5 5 5 6 5 4 4 3 3 1 2 4 4 4 4 3 3 4 3 3 2 1 1 1 2 2 1 2 2 2 1 1 1 1 3 4 4 3 3 3
1 2 3 2 2 1 3 6 4 4 4 5 6 8 8 8 5 7 10 10 11 14 15 14 15 12 11 13 12 12 10 12 14 14 13 12 11 11 11 10 9 8 9 8 6 5 4 4 4 5 5 6 4 4 4 2 2 4 4 4 4 4 4 4 3 4 4 3 3 3 3 2 2 2 3 3 3 3 1 2 2 2 5 3 3 2 2
6 7 3 4 4 4 6 5 4 6 6 6 9 10 8 5 8 10 12 12 13 13 15 15 9 12 13 12 11 12 13 13 13 12 12 11 11 11 10 9 10 9 8 7 8 6 4 4 4 4 4 4 4 3 3 3 3 5 4 4 3 4 4 4 4 4 4 3 3 4 4 2 3 4 3 3 4 4 2 4 3 3 4 3 3 2 2
6 2 1 6 6 4 7 9 8 7 6 4 5 9 9 9 10 11 13 14 14 14 13 15 14 14 14 14 12 10 11 12 12 13 13 12 12 12 11 9 9 8 7 7 7 7 5 4 4 3 3 2 2 3 4 4 3 2 3 4 4 4 4 5 4 3 4 4 4 4 4 3 2 2 3 4 4 3 4 4 4 4 4 3 3 3 3
4 4 3 5 4 4 4 7 8 7 8 8 6 8 10 11 12 13 13 14 13 12 13 15 16 14 13 14 12 11 11 12 12 11 11 11 9 8 10 9 9 8 8 8 7 6 6 4 4 3 3 2 2 4 4 4 3 2 0 1 1 1 5 5 4 4 4 7 6 5 5 4 4 4 2 3 4 5 6 6 6 6 5 5 5 5 6
4 6 5 9 9 9 6 7 6 6 8 10 9 9 11 13 13 13 12 14 14 13 14 15 15 14 12 14 14 13 11 10 9 9 8 8 8 9 10 9 8 9 7 7 7 6 6 5 4 4 3 3 4 5 4 4 4 3 1 1 2 1 1 2 4 3 3 4 3 5 5 4 4 5 5 4 5 5 5 6 6 6 6 6 6 5 5
6 7 9 11 9 3 1 5 6 7 8 12 11 9 9 10 11 11 11 9 11 14 15 15 14 15 13 13 14 13 11 11 10 9 9 8 8 8 8 8 8 8 7 8 6 6 5 5 5 5 4 4 4 5 4 3 3 2 1 0 2 3 3 0 3 2 0 1 3 3 4 5 4 4 6 6 5 5 5 8 11 11 8 7 7 5 5
7 5 3 1 10 6 3 6 6 7 8 11 12 10 9 8 10 12 13 12 10 11 10 11 15 15 15 14 13 13 11 11 10 11 10 9 7 8 7 8 8 8 7 7 6 6 5 4 5 5 4 4 4 4 4 3 3 3 2 1 1 1 0 1 3 2 2 2 3 4 4 3 3 3 6 7 7 7 9 10 11 12 11 13 12 8 5
3 5 5 8 9 9 5 5 8 8 8 11 10 8 9 10 9 8 9 12 13 10 10 11 14 17 15 14 14 13 11 10 10 9 9 10 9 9 9 9 9 8 7 7 7 7 5 5 5 4 4 4 4 5 4 4 4 3 3 2 1 1 1 3 2 1 3 3 3 3 5 3 3 4 4 5 7 9 9 8 11 12 13 14 12 11 10
8 4 5 6 10 8 6 7 7 6 7 10 10 10 11 11 9 10 10 9 9 12 12 13 14 15 16 13 13 14 11 9 9 10 9 8 9 8 7 8 9 9 9 8 6 6 5 5 5 4 4 4 4 4 4 4 4 4 3 3 3 3 3 3 3 4 2 2 3 3 4 4 5 4 4 5 5 7 9 8 7 10 12 12 12 13 12
13 10 9 8 9 8 8 11 9 8 9 10 9 6 9 12 11 11 10 11 11 12 14 14 13 12 14 13 11 11 11 10 10 9 7 7 6 6 7 9 9 7 7 6 6 6 6 5 5 4 4 3 5 6 6 5 5 5 5 4 4 4 4 4 4 4 4 4 4 5 4 4 5 4 5 5 5 5 6 7 8 7 5 8 10 10 9
12 14 15 12 10 5 5 10 6 5 9 9 11 9 9 10 12 11 10 11 11 13 14 13 13 11 10 11 11 11 12 9 7 7 7 7 7 8 9 7 8 7 7 5 5 6 7 5 4 4 4 3 3 6 6 6 5 5 5 5 5 6 8 5 4 5 4 4 5 5 4 5 4 4 5 5 4 4 4 6 7 7 7 7 4 5 6
6 3 10 14 8 7 6 7 8 8 9 11 12 12 11 11 12 14 13 12 10 9 10 11 12 10 9 8 9 8 8 10 9 7 7 9 9 8 6 7 7 7 6 5 5 5 5 5 4 4 4 4 4 5 6 6 5 6 5 5 5 5 5 6 5 5 5 5 6 5 6 6 5 4 4 4 4 5 5 4 5 6 7 5 4 5 6
7 8 7 10 12 11 9 7 9 10 9 8 10 11 13 14 11 11 10 10 10 10 8 5 7 9 11 8 9 10 9 8 8 9 9 7 5 6 6 7 7 7 6 5 5 5 5 4 4 4 3 3 3 4 5 6 6 6 6 6 6 6 6 6 5 5 6 5 5 5 5 4 5 4 4 4 4 5 4 5 5 5 5 6 5 5 2
9 9 11 10 10 11 12 9 8 8 9 9 12 11 12 14 11 8 8 6 8 10 6 7 7 6 7 7 7 9 9 8 7 5 4 5 8 7 7 7 6 5 4 5 5 4 5 5 5 4 4 4 4 3 4 5 6 6 7 6 6 6 6 5 4 4 4 6 6 6 4 4 5 4 5 4 4 4 4 4 4 4 4 5 4 4 5
8 10 11 10 10 9 11 8 7 8 8 9 11 12 12 12 11 9 7 6 6 7 5 7 7 6 5 5 4 5 6 6 7 6 5 5 6 8 9 9 9 7 7 6 6 6 6 5 5 5 6 5 4 4 3 4 6 6 5 5 5 8 9 10 6 6 6 6 5 4 4 4 5 4 4 4 4 5 5 6 5 4 4 5 4 5 6
11 10 11 8 9 9 7 6 7 7 7 10 13 13 13 13 12 10 7 7 6 7 6 7 7 6 5 5 6 6 7 7 6 6 6 6 6 7 8 8 8 7 7 6 6 6 6 5 5 6 5 4 5 4 4 4 4 6 6 6 6 6 7 9 6 5 5 5 4 4 4 5 6 5 4 4 4 5 6 6 7 5 6 6 5 6 6
11 9 6 6 6 7 6 5 8 5 6 9 11 11 10 11 10 9 9 9 8 6 7 6 5 6 7 7 7 7 7 6 6 6 5 6 6 6 6 6 6 7 7 7 6 6 6 6 6 5 5 4 5 5 5 5 4 5 6 6 6 5 5 5 5 4 4 4 4 5 5 5 6 5 6 5 4 4 5 6 7 6 5 6 7 7 6
12 11 11 9 10 10 9 6 5 6 5 5 8 10 10 10 10 9 9 8 8 9 8 7 6 6 6 7 8 7 7 7 6 6 6 6 6 6 6 7 6 6 7 7 6 6 6 6 5 4 5 4 5 5 5 5 5 6 5 5 6 5 4 4 4 4 4 4 4 4 4 4 4 6 5 4 5 4 5 5 5 6 6 6 7 7 8
8 6 6 7 6 8 7 7 6 8 10 7 6 8 9 9 9 9 10 10 9 7 7 8 7 7 6 6 7 7 7 8 7 7 6 6 6 7 5 5 5 5 5 5 5 6 6 6 5 5 4 4 5 4 4 4 4 5 5 6 5 4 4 4 5 6 5 6 4 5 4 3 5 6 5 4 5 4 5 4 4 4 5 6 7 6 7
9 7 5 5 6 7 6 6 7 9 8 8 10 10 9 8 9 9 10 9 8 8 8 9 8 7 6 6 7 7 7 6 6 6 6 6 6 5 5 6 6 5 5 5 6 6 4 5 7 8 5 4 4 4 3 3 3 3 4 4 4 2 1 2 3 4 4 4 4 4 4 4 5 4 4 4 4 3 4 5 5 5 6 6 5 5 6
8 9 7 6 5 6 6 6 6 7 8 9 9 8 8 9 10 8 7 7 8 9 8 8 7 7 7 7 7 6 5 6 7 7 7 7 5 4 4 5 5 6 5 6 6 5 5 5 8 12 6 4 4 4 4 6 4 3 4 5 3 1 1 2 3 5 4 3 3 3 3 4 4 4 3 3 4 4 4 4 4 4 6 5 4 4 4
5 8 7 6 6 6 5 4 7 9 8 10 9 10 11 9 7 8 8 8 8 8 7 8 8 7 6 5 4 5 5 4 6 7 7 7 7 6 5 5 7 6 7 7 3 4 4 5 10 7 4 4 4 4 5 9 7 4 4 3 4 3 2 3 4 4 2 4 3 2 4 5 5 5 5 4 3 3 4 4 4 5 6 5 4 4 5
6 5 5 5 4 4 4 4 7 9 11 12 8 7 7 10 9 9 8 8 7 7 7 6 5 5 5 5 5 5 5 5 7 7 7 7 7 8 9 8 8 8 8 5 3 5 5 4 3 4 5 5 5 4 5 9 7 7 5 5 4 4 3 2 3 4 3 4 2 4 4 4 3 4 4 4 3 4 3 3 3 3 5 6 6 5 5
6 7 8 8 7 5 5 5 6 7 8 11 11 10 9 9 9 10 9 8 7 8 8 7 6 7 6 6 6 7 7 5 5 5 6 6 6 6 5 5 6 6 5 6 5 4 5 9 6 6 5 4 5 6 4 6 5 2 3 4 3 3 2 1 2 4 4 3 4 4 2 3 3 4 3 3 3 3 4 4 4 3 4 4 5 5 5
7 7 6 7 6 6 5 6 5 5 5 6 9 9 9 10 9 8 8 8 7 7 8 8 8 7 7 8 8 8 5 6 7 8 7 6 7 6 7 8 6 6 6 5 4 4 4 6 5 6 5 5 6 6 6 7 3 3 4 4 4 3 1 2 3 4 3 5 4 3 3 2 3 2 3 3 3 3 3 3 3 4 3 3 4 4 4
6 7 7 6 6 6 5 5 5 4 3 4 5 7 8 9 10 11 9 8 8 7 7 7 9 9 8 8 7 5 5 5 7 7 8 9 9 8 7 7 5 6 8 7 6 6 4 4 4 5 5 5 4 8 8 4 4 4 4 4 3 1 1 3 3 3 4 4 4 4 4 4 2 2 3 3 3 3 3 3 4 4 4 3 3 3 4
8 9 7 6 5 5 5 5 5 5 5 3 4 5 7 8 9 7 7 7 8 7 7 6 7 7 5 6 6 6 6 5 6 7 6 6 8 9 9 7 6 7 10 7 6 6 7 6 6 4 6 5 6 9 10 4 5 5 4 3 2 1 2 4 4 4 5 6 5 4 4 3 3 3 3 4 4 3 3 3 4 4 4 4 3 3 3
8 8 7 7 5 4 5 5 4 4 5 5 4 4 5 6 7 9 8 8 7 7 7 7 6 5 5 5 5 5 5 4 6 6 7 7 5 5 4 6 5 7 9 5 5 7 7 7 6 7 10 12 13 13 7 5 5 5 3 3 3 2 3 4 5 5 7 7 7 7 5 4 4 4 4 5 4 5 3 3 4 4 6 5 3 3 4
8 8 8 7 6 5 5 4 4 5 5 3 3 4 5 6 6 7 8 7 8 6 5 5 5 6 5 5 5 6 6 6 7 6 6 6 6 7 5 6 5 5 5 8 6 6 7 7 8 11 11 12 14 14 7 5 5 3 3 3 3 3 2 2 5 7 7 6 6 6 5 5 7 6 6 6 5 4 4 4 5 5 5 5 4 4 4
7 7 7 8 7 5 4 4 4 4 5 4 4 3 4 6 6 5 6 7 6 6 6 5 5 5 5 5 4 4 4 5 5 6 7 8 8 6 6 7 6 6 10 10 5 7 7 9 10 9 12 14 13 8 5 4 4 3 3 3 4 3 3 5 5 7 7 7 7 7 6 7 7 7 7 6 7 5 5 4 4 5 6 6 5 5 5
7 5 6 6 5 5 4 4 5 5 5 5 6 4 4 5 5 6 4 5 5 5 4 4 5 6 6 6 6 6 5 5 5 5 5 6 6 5 6 8 10 11 10 7 6 7 7 7 8 11 12 14 13 6 6 5 4 4 4 4 5 5 5 5 6 7 8 8 7 7 7 7 7 7 6 6 6 6 6 5 6 6 6 4 4 4 4
9 8 6 6 6 5 4 5 5 5 5 7 6 6 4 5 6 5 5 4 4 4 5 5 6 5 5 5 5 6 7 7 6 7 5 6 6 5 4 6 5 9 10 9 10 8 12 12 11 12 12 12 8 5 6 5 6 5 5 6 5 6 5 6 5 6 7 7 7 7 7 7 7 7 6 7 7 7 7 7 7 6 6 5 6 5 4
8 8 6 5 5 5 5 4 4 4 5 5 6 5 4 5 5 5 5 4 5 4 5 4 4 4 4 5 5 6 5 6 7 7 5 5 5 6 6 6 9 10 8 6 7 6 9 13 13 13 13 11 8 7 7 6 6 6 6 6 6 6 6 6 6 6 6 7 7 7 7 8 7 7 7 7 7 7 7 7 7 6 6 6 5 4 4
6 6 6 6 6 5 6 5 5 5 4 4 5 6 5 4 4 4 4 4 6 5 6 5 5 6 6 6 5 6 6 6 6 6 4 5 5 4 5 5 4 7 8 7 6 7 9 14 14 13 10 7 7 6 6 6 6 7 7 7 7 7 7 7 6 7 8 8 7 7 7 8 7 8 8 7 7 7 7 7 7 7 8 6 4 5 4
7 7 7 6 6 6 5 6 6 5 5 5 4 3 5 6 6 5 6 6 6 4 6 6 6 6 6 6 6 6 6 6 6 6 6 5 4 5 5 5 6 6 7 8 7 8 7 6 7 7 7 7 6 6 6 7 7 7 7 7 8 8 7 6 5 6 6 8 8 8 8 7 7 7 7 7 8 8 7 7 6 6 6 6 6 7 6
7 7 6 6 6 5 5 5 4 4 4 4 5 5 6 6 6 5 5 6 6 6 6 5 6 6 6 6 6 6 6 6 5 5 5 5 6 5 6 7 6 7 8 8 8 7 6 7 7 8 8 8 7 7 7 8 7 7 8 8 7 7 7 7 7 6 7 8 8 8 8 7 7 7 7 7 7 8 8 7 7 7 6 6 6 6 5
Wind_Direction
254 247 275 0 68 79 94 84 72 73 110 103 101 122 147 134 135 175 172 156 139 169 185 181 173 164 166 166 164 159 148 137 132 141 147 150 144 135 133 125 121 128 126 127 133 131 116 119 118 117 109 102 99 89 88 94 92 90 93 100 99 93 88 102 124 130 131 122 108 83 76 79 75 78 83 75 57 70 78 60 78 93 113 134 122 81 35
65 45 92 77 88 83 69 79 80 90 89 94 104 111 143 144 139 140 139 129 117 156 168 172 161 156 149 145 142 145 151 149 149 151 153 151 146 145 143 146 144 136 128 140 150 134 124 121 121 115 108 106 99 97 99 100 97 96 102 102 104 99 94 110 129 138 137 132 115 106 83 89 91 85 90 98 89 73 127 110 80 64 86 114 132 110 65
26 75 81 100 89 90 81 60 77 79 78 84 97 101 89 83 76 113 122 121 127 329 128 124 118 122 126 135 155 161 157 154 155 151 151 153 153 149 146 144 145 138 142 153 137 119 125 125 120 113 118 111 95 85 87 92 95 108 110 114 109 111 104 90 101 122 135 138 131 135 158 103 86 101 112 158 325 348 18 89 97 51 58 82 87 77 74
340 109 105 108 100 89 93 89 96 111 107 107 132 124 169 133 143 133 112 118 169 183 123 110 123 136 147 154 157 155 156 159 153 156 154 151 154 149 141 140 139 142 146 142 126 128 128 124 123 123 112 101 94 99 108 110 120 105 90 100 108 98 84 60 66 96 128 140 147 169 168 139 118 109 108 92 0 336 5 35 111 63 49 83 116 118 92
233 197 120 122 106 84 60 14 256 109 45 97 84 62 29 155 141 132 146 206 174 145 143 126 136 147 153 151 157 153 154 152 153 148 143 143 144 139 137 138 141 142 142 131 126 126 121 121 122 124 122 113 117 123 119 135 109 86 89 96 94 82 58 61 51 81 116 129 145 160 185 180 148 93 79 61 10 6 17 41 99 102 69 79 122 135 118
257 99 127 82 59 52 187 238 240 260 132 124 106 91 103 111 71 183 176 131 131 139 146 143 152 155 163 165 170 164 156 147 134 135 137 134 132 137 138 138 138 135 125 123 127 128 130 133 132 136 127 127 142 137 124 107 94 85 84 89 106 121 126 73 51 73 81 87 82 73 56 45 50 50 38 28 332 328 38 50 77 99 294 101 118 150 167
128 173 62 57 44 201 252 356 77 97 93 87 86 72 72 98 100 99 98 113 133 145 147 149 153 155 153 150 148 138 124 135 138 141 139 133 137 135 135 135 132 129 126 122 122 125 134 131 123 113 109 122 123 108 103 93 89 92 98 106 113 130 120 93 73 85 85 97 105 93 83 85 78 57 39 17 27 359 356 43 131 162 188 211 208 158 172
53 43 39 101 208 240 355 79 83 89 93 98 86 49 20 33 108 115 114 122 121 119 110 101 112 123 118 89 69 108 131 141 142 143 141 139 136 137 143 134 130 129 128 129 132 135 126 109 112 123 136 135 121 92 76 104 93 94 105 109 127 127 111 117 110 101 88 65 73 80 81 73 72 55 347 28 11 329 17 353 348 342 273 245 269 169 172
119 136 88 113 135 81 93 88 157 175 162 201 131 132 263 307 153 124 123 122 121 114 115 115 110 108 98 87 59 49 118 114 113 126 128 137 135 131 130 125 125 124 127 127 129 120 117 120 123 139 149 121 92 88 93 90 92 99 102 112 130 133 151 176 143 125 109 98 108 126 112 85 106 276 356 352 329 313 0 335 340 331 268 261 260 244 168
107 115 80 53 34 137 240 245 253 256 171 130 134 98 226 312 110 132 128 134 131 129 131 127 126 114 101 107 128 28 96 120 119 115 120 124 127 121 115 115 120 125 123 117 113 117 120 127 142 141 93 103 105 103 105 98 94 95 104 115 109 114 154 175 180 163 153 147 154 188 108 147 195 268 286 310 287 300 114 228 316 298 283 265 304 247 192
59 62 107 145 130 247 211 246 116 135 130 127 115 70 228 255 154 151 133 136 146 148 148 151 147 113 120 167 170 173 135 127 128 127 129 126 120 121 125 129 129 128 122 114 112 108 116 128 163 105 104 107 109 118 118 118 122 129 149 154 123 119 124 147 159 205 173 158 179 200 193 235 232 236 264 247 287 83 136 245 255 287 296 42 344 341 268
117 130 89 106 190 152 317 315 88 162 126 70 57 4 281 210 158 151 140 143 153 160 154 155 147 132 140 180 181 163 146 136 137 135 131 123 122 122 122 121 124 123 117 109 106 113 132 162 108 111 123 113 123 134 142 136 133 155 174 174 173 136 139 140 137 130 148 167 194 219 235 238 262 246 246 289 297 301 315 208 303 334 337 301 137 275 278
84 88 104 82 35 292 296 303 287 138 132 66 78 201 231 175 146 152 145 149 152 152 155 159 155 215 192 150 140 141 134 129 125 121 122 126 129 129 130 131 129 124 124 125 131 143 153 126 127 131 114 117 126 140 144 129 152 185 197 192 147 142 135 116 135 145 180 144 142 231 226 206 223 237 214 239 274 285 331 348 30 9 357 334 206 273 287
94 124 104 168 219 236 236 259 249 21 74 198 224 238 171 139 146 146 148 141 139 138 138 114 102 99 108 118 130 135 140 138 136 134 134 131 129 130 132 135 132 130 123 122 127 110 93 127 125 124 122 122 139 138 124 138 181 204 173 166 164 149 138 177 203 268 127 234 200 217 250 242 74 299 271 222 223 243 301 43 26 345 334 329 323 301 295
32 38 90 55 101 269 311 308 338 23 121 231 197 123 108 131 136 127 126 127 128 120 109 113 113 112 116 127 134 139 140 140 142 140 138 136 137 139 138 135 137 132 125 114 113 116 126 129 129 132 127 129 143 129 126 177 183 169 175 163 166 168 186 187 222 246 257 271 284 305 269 245 245 276 284 192 235 231 272 6 12 351 320 315 330 322 308
155 195 140 177 209 238 302 128 168 265 195 160 132 116 117 123 118 116 111 116 128 122 122 121 119 123 126 129 135 136 143 147 142 136 137 140 139 136 135 137 137 119 112 115 117 123 128 135 140 148 133 137 143 142 188 218 190 169 174 176 177 191 206 214 221 229 237 248 259 250 238 240 217 197 234 252 280 256 277 279 300 321 306 309 332 327 301
138 207 179 184 204 133 35 96 118 121 133 122 125 114 126 125 101 120 115 124 124 123 123 124 128 129 132 135 145 142 138 129 131 137 142 139 135 136 139 138 130 125 131 136 132 128 142 144 154 147 147 143 160 178 220 231 166 173 187 179 199 211 221 237 232 226 237 256 262 244 255 212 235 243 244 225 251 274 275 281 260 264 279 289 293 279 286
95 53 65 117 52 62 63 58 93 110 114 114 117 119 112 114 131 132 128 130 128 127 127 124 123 129 136 134 130 124 126 127 126 123 120 122 128 128 130 133 136 140 139 134 131 133 155 152 144 142 147 153 166 201 204 200 171 171 177 195 220 224 225 237 241 238 230 267 257 259 269 253 239 247 232 223 220 251 239 246 252 243 263 275 263 259 264
70 87 50 101 115 96 86 86 73 71 80 96 109 115 121 129 125 121 126 130 133 133 132 126 128 130 131 127 123 118 113 114 118 122 126 130 135 140 143 148 139 135 131 133 140 146 156 182 148 156 143 159 176 188 186 204 190 156 154 192 225 220 231 240 252 244 235 238 250 267 276 292 306 294 245 210 227 233 216 228 246 254 251 253 264 268 268
82 162 144 99 97 91 82 93 93 84 77 76 94 117 126 127 128 129 129 127 128 131 128 130 130 131 128 123 122 120 122 125 129 132 138 143 142 141 140 144 141 136 141 149 154 153 160 187 176 180 174 179 167 169 189 197 176 177 162 180 2 290 218 227 228 233 244 248 236 240 261 262 266 286 285 205 203 224 226 223 230 256 254 257 259 257 264
51 64 93 107 80 58 58 73 69 93 99 94 89 100 115 127 129 133 137 138 139 136 135 134 130 125 127 129 128 127 128 127 129 134 135 135 135 136 134 142 139 144 151 155 161 160 175 187 181 186 193 170 164 173 198 188 139 117 110 46 64 1 6 212 229 239 229 249 226 214 241 261 253 232 238 242 226 242 241 207 208 226 244 254 249 238 236
163 169 176 133 111 135 99 88 107 101 94 94 95 93 105 124 127 129 128 128 132 135 139 137 130 127 130 130 130 130 133 135 133 128 124 127 133 143 148 142 142 146 153 152 156 162 179 181 175 181 199 198 185 185 205 181 125 109 122 91 70 31 359 309 215 229 176 233 204 210 226 248 268 292 245 241 228 224 258 254 239 233 228 237 239 229 231
198 219 205 69 112 111 158 137 118 108 106 97 94 97 109 124 136 140 133 130 129 129 131 130 127 131 133 134 129 129 133 137 138 135 132 132 133 140 146 140 145 150 157 152 149 162 184 183 177 188 197 205 206 197 188 187 155 162 158 131 116 123 264 239 235 207 217 238 255 247 239 243 253 262 289 306 287 258 249 267 271 274 259 247 258 251 221
70 130 154 133 123 138 158 126 111 109 105 100 96 93 96 112 125 122 123 136 137 133 128 123 129 133 134 137 134 134 137 140 140 142 142 144 147 149 154 155 155 152 156 157 165 175 186 185 189 194 202 207 198 192 191 178 165 163 169 151 200 236 232 246 277 215 203 229 246 253 275 268 257 255 266 281 301 303 288 265 275 273 268 267 263 251 244
149 153 125 108 110 105 101 98 96 97 100 103 104 104 105 101 98 107 113 120 127 127 124 125 134 137 137 140 138 141 145 151 151 153 156 156 152 147 145 146 155 159 168 174 177 174 181 190 186 194 186 200 187 214 200 181 169 183 206 201 212 235 234 254 255 267 262 254 271 271 278 285 289 278 265 262 282 295 312 313 283 263 272 268 258 252 251
118 113 101 91 89 101 105 82 67 85 95 100 99 95 100 106 105 95 100 111 113 115 119 127 131 137 136 138 141 142 147 157 163 155 150 157 151 143 154 163 171 168 168 171 178 178 182 187 190 178 178 220 190 197 199 189 183 195 208 219 216 210 223 232 238 242 250 259 269 277 268 266 262 267 268 266 264 273 293 302 320 327 305 268 262 268 271
115 120 105 82 75 47 70 117 146 121 95 91 99 100 95 91 91 94 95 98 110 117 122 128 131 135 136 143 147 153 154 162 157 153 165 161 167 178 177 171 171 167 167 164 174 180 175 184 189 179 199 237 222 187 189 186 189 199 212 222 229 235 250 245 198 229 241 247 257 263 273 271 270 272 276 275 271 273 264 274 290 289 287 306 308 200 241
102 90 127 138 152 134 121 115 120 103 95 99 99 97 100 99 96 97 99 97 95 103 115 128 132 134 137 147 141 147 150 157 162 166 169 185 187 182 174 166 162 162 156 158 166 168 166 180 193 200 232 239 213 192 189 190 187 205 209 218 223 234 239 260 262 250 254 253 254 253 256 263 257 258 257 265 269 263 266 273 274 278 297 280 271 281 245
78 77 70 106 122 126 119 108 92 90 90 90 91 98 100 95 93 95 100 110 115 110 109 115 132 140 143 152 147 150 158 163 168 176 188 190 171 172 167 152 151 149 150 153 161 164 166 180 192 203 235 248 211 200 190 182 194 206 219 224 229 235 245 244 235 246 256 256 255 250 248 249 262 264 260 261 258 260 266 268 272 277 268 291 315 320 320
103 103 103 108 117 119 111 108 112 109 107 98 93 97 101 102 96 93 94 95 107 112 121 120 114 124 133 137 146 148 153 164 158 156 164 161 163 155 147 140 128 133 140 153 178 181 183 195 202 209 232 247 244 224 209 195 203 207 213 219 221 230 239 242 230 236 250 256 253 253 259 262 256 247 253 248 247 254 263 264 258 262 280 286 273 259 270
108 110 112 114 109 107 114 124 121 118 106 103 107 104 101 102 104 99 95 90 85 97 110 117 122 122 120 130 132 124 123 124 130 136 130 132 135 138 142 144 147 169 180 192 196 193 194 200 200 211 235 234 236 224 187 185 207 213 219 231 240 246 247 253 247 232 237 251 263 260 268 266 261 258 255 251 248 258 256 261 265 256 251 241 244 257 255
111 110 111 112 116 114 112 120 121 119 121 121 113 117 121 120 121 118 113 103 111 119 115 111 120 135 140 129 124 121 120 123 126 128 129 128 136 142 152 160 165 172 181 191 195 193 191 192 202 227 233 232 236 239 218 205 208 205 217 227 232 242 250 249 248 245 237 242 248 257 262 259 265 258 264 269 264 254 258 260 261 251 227 231 233 240 247
112 103 97 107 101 109 126 138 144 138 135 139 133 135 134 132 130 130 131 130 124 115 114 119 125 131 131 125 125 128 129 128 127 126 131 138 150 159 164 167 175 176 186 193 194 194 191 192 216 228 231 228 235 234 232 232 235 230 230 231 234 233 237 238 228 230 242 239 249 251 251 252 248 252 253 265 262 254 249 251 257 256 232 229 232 238 236
145 156 161 162 150 153 154 170 152 122 137 140 135 135 136 140 139 138 137 134 132 135 135 139 139 134 123 125 131 134 131 124 131 146 158 160 169 172 179 175 177 183 190 196 200 201 204 209 218 229 236 230 230 234 236 233 229 233 224 216 230 233 234 237 235 229 244 259 257 262 260 256 259 254 264 269 271 264 256 255 250 250 240 239 238 238 240
119 128 134 137 136 143 150 151 139 139 150 142 132 141 144 145 142 145 144 139 144 155 152 139 140 138 136 131 139 148 151 157 167 172 180 181 183 185 181 175 180 190 205 211 205 209 211 211 211 220 233 241 228 214 216 228 225 235 226 213 218 225 222 217 218 222 234 251 265 278 276 263 265 270 262 256 262 271 283 275 258 251 244 242 249 238 240
120 120 118 119 138 145 151 134 139 150 145 141 149 152 148 149 141 144 150 153 151 146 153 149 150 145 149 156 159 164 170 178 178 179 179 191 199 188 154 159 173 183 194 221 237 228 224 219 227 228 214 217 223 247 253 252 225 207 221 205 215 228 225 217 230 246 255 258 271 267 262 257 260 259 258 265 268 272 265 266 262 261 254 245 240 238 240
135 140 150 145 154 150 153 139 132 123 141 139 139 140 146 150 156 156 147 143 150 155 157 149 143 152 173 181 183 181 172 177 185 184 191 191 186 174 186 178 178 182 190 213 248 233 223 227 230 240 219 200 246 253 263 267 272 234 205 209 226 226 247 237 233 237 263 270 261 263 248 260 281 281 283 276 275 271 266 264 266 266 266 264 250 236 240
131 138 152 152 162 162 168 156 134 135 142 135 145 150 156 156 150 149 156 158 160 159 160 155 160 172 177 182 174 191 195 192 208 196 188 188 185 183 199 184 196 189 195 215 234 206 217 223 230 226 159 203 234 240 248 268 259 197 190 216 235 229 221 238 266 282 291 296 274 199 211 230 243 268 279 283 282 301 304 298 289 282 278 276 255 229 233
90 89 98 109 101 97 97 98 131 145 143 143 147 152 157 153 156 151 155 164 162 158 153 161 160 163 178 174 201 215 217 203 206 200 183 191 186 182 199 202 199 193 202 213 200 187 210 219 210 169 198 220 238 252 252 269 234 188 209 208 232 239 242 252 277 288 280 272 247 205 214 233 249 265 278 286 307 325 327 320 307 304 298 294 291 263 237
106 105 111 102 92 90 94 116 144 154 154 147 147 159 164 152 158 162 165 163 172 165 166 164 161 176 194 199 204 219 228 206 188 184 180 177 178 193 214 243 240 229 232 201 196 212 213 203 190 185 214 225 233 241 244 245 254 216 222 235 239 245 238 240 261 275 273 236 217 199 210 237 256 258 272 305 322 323 313 308 309 303 301 303 299 280 268
120 110 98 97 101 94 100 111 139 160 170 170 156 152 152 155 158 156 165 171 178 178 174 173 176 190 197 200 205 214 208 188 170 173 167 155 167 184 189 217 232 224 220 207 191 201 206 196 182 202 223 225 231 239 241 248 223 173 193 212 234 250 292 291 274 266 230 205 205 194 206 220 240 276 300 302 299 291 283 285 284 279 270 281 299 306 296
123 108 100 93 97 103 101 104 111 119 148 175 166 152 150 154 160 171 178 174 174 181 183 189 189 192 196 199 198 186 187 177 170 170 166 169 180 183 192 232 235 220 223 212 196 197 206 211 213 216 220 225 231 242 237 222 209 215 231 234 240 213 195 248 249 222 216 210 194 192 209 215 221 266 272 279 283 293 294 295 291 291 298 299 298 298 300
124 117 116 116 113 106 98 92 106 147 159 176 187 166 147 157 171 172 165 168 173 178 188 196 203 195 181 177 176 180 186 178 172 176 191 203 191 178 186 218 222 221 225 215 197 197 208 220 223 230 234 226 227 238 245 201 198 211 210 218 230 213 197 237 231 206 207 210 207 213 211 217 230 243 261 269 275 280 281 271 271 280 280 275 280 289 283
135 132 136 135 140 140 112 98 97 118 157 193 191 157 137 145 158 164 165 169 171 176 179 196 194 185 184 174 168 183 202 190 183 181 180 211 244 256 224 202 199 220 218 196 186 192 210 223 225 231 237 236 233 235 233 201 212 214 212 214 235 248 233 230 228 209 209 209 204 209 215 222 224 232 236 253 268 274 264 260 264 263 262 260 260 253 257
144 148 148 148 146 131 127 128 135 159 182 174 155 136 136 145 156 163 160 163 170 176 172 166 168 176 181 180 184 195 200 193 185 172 176 201 214 239 231 216 203 197 199 183 187 197 209 217 228 238 244 241 236 232 226 212 210 221 233 234 236 236 259 225 200 213 219 215 212 215 212 220 225 226 226 234 237 236 244 251 261 257 253 256 254 254 256
147 146 143 137 134 149 167 157 161 136 126 119 105 95 118 147 157 162 166 162 166 175 177 178 179 187 187 192 203 207 210 214 209 191 193 187 191 218 207 191 206 203 210 205 198 211 221 224 226 232 238 232 229 231 232 224 213 213 231 244 259 248 219 229 219 210 213 217 219 217 219 228 231 230 225 226 229 227 237 242 251 259 247 243 243 235 239
141 141 143 143 150 152 149 129 117 109 111 110 118 131 130 126 137 149 161 166 169 181 185 190 194 204 196 192 190 202 220 242 263 241 217 218 216 208 204 203 208 212 213 209 203 214 221 230 234 232 229 231 236 227 228 228 225 235 238 238 237 234 222 205 204 212 211 216 217 218 223 226 228 233 232 231 233 232 237 245 255 260 263 256 255 254 256
145 149 155 149 149 151 131 118 106 120 142 157 160 160 163 143 142 150 156 160 171 181 188 195 202 208 206 205 198 190 185 185 220 255 234 212 209 211 209 203 206 208 209 206 208 214 222 225 227 227 229 234 239 232 223 232 231 229 243 262 270 279 290 285 244 215 215 217 220 223 233 242 244 242 238 231 234 235 240 243 249 259 265 253 249 246 253
149 151 152 141 135 140 144 148 137 149 171 172 152 170 176 163 160 161 170 172 177 188 198 205 208 215 215 213 208 210 206 187 184 219 229 204 202 205 218 220 224 216 208 204 216 224 227 230 234 236 236 236 233 230 226 229 234 238 235 234 240 241 228 221 228 231 226 221 218 220 226 232 236 233 235 235 235 239 244 247 248 245 255 251 246 245 240
140 130 133 142 147 154 161 159 167 176 176 166 165 167 170 152 159 201 194 185 195 204 212 221 223 225 223 224 224 218 205 205 214 214 201 189 193 205 216 219 226 225 214 208 219 226 232 232 235 239 241 240 237 231 228 227 231 237 242 247 247 243 239 240 241 230 224 228 227 227 232 235 237 238 236 232 235 238 239 240 240 248 252 245 232 230 227
143 146 158 168 170 169 167 169 185 175 161 178 187 168 158 171 193 197 192 197 195 202 216 231 236 233 231 232 228 225 219 214 209 208 209 207 188 196 204 215 222 223 223 216 218 224 225 230 236 245 250 248 243 238 233 229 228 233 236 240 241 245 245 235 230 235 233 230 231 232 233 237 237 239 238 236 237 240 240 237 238 239 240 229 218 215 215
150 155 161 166 164 171 182 195 187 174 171 174 175 174 181 186 184 193 212 209 198 208 209 211 246 253 231 227 227 228 224 216 216 220 214 211 214 221 227 217 213 226 224 219 222 228 226 228 235 238 238 242 243 242 240 232 229 233 237 239 243 244 240 239 234 234 238 236 231 233 237 236 233 236 242 243 241 241 239 233 230 232 229 219 215 215 215